www.pogodaiklimat.ru

Погода и климат >> Архив погоды >> Украина >> Мелитополь


ПОГОДА в Мелитополе

  • Прогноз погоды в Мелитополе
  • Монитор погоды в Мелитополе

АРХИВ ПОГОДЫ в Мелитополе

Время (UTC), дата Ветер
(напр.,м/с)
 
Видим.   Явления Облачность Т
(С)
Тd
(С)
f
(%)
Тe
(С)
Тes
(С)
Комфортность P
(гПа)
Po
(гПа)
Тmin
(С)
Tmax
(С)
R
(мм)
R24
(мм)
S
(см)
21 18.06 штиль 0 15 км ясно +20.4 +14.6 69 +23 +23 комфорт 1013.6 1009.6
00 19.06 штиль 0 14 км ясно +18.9 +13.8 72 +20 +20 1012.8 1008.7
03 19.06 СВ 1 20 км ясно +20.7 +14.4 67 +25 +25 комфорт 1012.5 1008.5
06 19.06 СВ 1 20 км ясно +29.3 +14.9 42 +32 +43 душно 1012.7 1008.8 +18.7
12 19.06 В 1 20 км 8/8 1000 м
[Cu med, cong]
+34.4 +14.0 29 +35 +39 очень
жарко
1011.3 1007.4
18 19.06 штиль 0 20 км {гроза, ливн. осадки} 3/0
[Ac trans Ci fib]
+25.8 +19.5 68 +31 +31 очень
душно
1011.1 1007.2 +35.0 0.0
21 19.06 штиль 0 15 км 4/0
[Ac trans]
+22.8 +19.0 79 +29 +29 очень
душно
1011.5 1007.5
00 20.06 В 2 14 км ясно +21.3 +18.3 83 +26 +26 душно 1011.5 1007.5
03 20.06 СВ 2 20 км ясно +22.3 +16.6 70 +27 +27 душно 1012.0 1008.0
06 20.06 В 2 20 км ясно +29.1 +17.0 48 +33 +42 очень
душно
1011.7 1007.8 +21.2
09 20.06 В 2 20 км 6/6 1000 м
[Cu med, cong]
+32.5 +15.5 36 +35 +42 душно 1011.4 1007.6
12 20.06 СВ 2 20 км 6/6 600 м
[Cb cap]
+33.3 +13.5 30 +34 +40 очень
жарко
1010.8 1006.9
15 20.06 СВ 2 20 км 3/3 1000 м
[Cu med, cong Ac trans]
+33.3 +11.8 27 +33 +36 жарко 1010.0 1006.2
18 20.06 СВ 1 20 км 1/0
[Ac trans]
+29.1 +12.6 36 +30 +30 жарко 1011.3 1007.4 +34.9
21 20.06 СВ 2 20 км ясно +24.9 +11.9 44 +26 +26 жарко 1011.9 1008.0
00 21.06 СВ 2 20 км 3/0
[Ac trans]
+24.1 +10.3 42 +25 +25 комфорт 1012.5 1008.5
03 21.06 СВ 2 20 км 1/0
[Ac trans]
+22.8 +10.7 46 +25 +25 комфорт 1013.0 1009.0
06 21.06 СВ 2 20 км ясно +29.5 +13.8 38 +31 +41 жарко 1013.0 1009.1 +22.8
09 21.06 В 4 20 км 3/3 1000 м
[Cu hum]
+35.1 +9.3 21 +34 +43 очень
жарко
1012.3 1008.5
12 21.06 ЮВ 4 20 км 6/6 1000 м
[Cu med, cong]
+35.4 +9.2 20 +34 +38 очень
жарко
1012.4 1008.5
15 21.06 В 2 20 км 3/3 1000 м
[Cu med, cong]
+34.3 +9.8 22 +33 +36 жарко 1011.9 1008.1
18 21.06 штиль 0 20 км 3/0
[Ac trans]
+27.9 +14.0 43 +30 +30 жарко 1012.7 1008.8 +36.4
21 21.06 СВ 1 20 км ясно +25.5 +13.2 46 +27 +27 жарко 1013.4 1009.5
00 22.06 В 1 18 км ясно +24.4 +13.4 50 +27 +27 жарко 1013.8 1009.8
03 22.06 СВ 1 20 км 6/0
[Ac trans]
+23.5 +12.5 50 +25 +26 комфорт 1013.9 1009.9
06 22.06 В 1 20 км 8/0
[Ac trans Ci]
+26.5 +13.4 44 +28 +36 жарко 1014.2 1010.3 +23.0
09 22.06 ЮВ 2 20 км 9/0
[Ac trans Ci]
+32.4 +11.6 28 +32 +45 жарко 1014.2 1010.4
12 22.06 В 3 20 км 9/3 600 м
[Cb cap Cs]
+33.8 +8.6 21 +32 +39 жарко 1014.0 1010.1
15 22.06 В 2 20 км 10/4 600 м
[Cb cap Ac As]
+29.1 +9.6 30 +29 +30 жарко 1014.1 1010.2
18 22.06 С 2 20 км в посл. час ливневой дождь 10/8 600 м
[Cb cap Ac As]
+26.9 +14.0 45 +29 +29 жарко 1014.0 1010.1 +35.5 0.0
21 22.06 С 3 18 км {ливн. осадки} 10/8 600 м
[Cb cap Ac As]
+26.3 +14.6 49 +29 +29 жарко 1012.8 1008.9
00 23.06 С 4 17 км {ливн. осадки} 8/0
[Ac trans]
+26.2 +14.1 47 +28 +28 жарко 1012.7 1008.7
06 23.06 СВ 1 20 км 10/6 600 м
[Cb cap Ac As]
+26.5 +14.1 46 +29 +30 жарко 1013.1 1009.2 +25.5 0.0
12 23.06 ЮВ 3 20 км 9/6 1000 м
[Sc diur, vesp Ac trans]
+31.1 +15.6 39 +34 +36 душно 1012.6 1008.7
18 23.06 штиль 0 10 км в посл. час гроза {ливн. осадки} 10/4 600 м
[Cb cap Ac As]
+23.4 +20.2 82 +31 +31 очень
душно
1013.2 1009.2 +33.5 0.3
00 24.06 СВ 1 15 км {ливн. осадки} 6/0
[Ac trans Ci fib]
+22.7 +17.5 72 +28 +28 душно 1012.7 1008.7
06 24.06 СВ 1 20 км 8/3 1000 м
[Cu med, cong Ac trans Cc]
+27.1 +17.2 55 +31 +36 душно 1013.0 1009.1 +21.2 0.4
12 24.06 ЮВ 2 10 км гроза, ливневой дождь 9/9 800 м
[Cb cap]
+29.6 +17.8 49 +34 +35 очень
душно
1013.2 1009.3
18 24.06 штиль 0 20 км {гроза, ливн. осадки} 4/0
[Ac trans Ci fib]
+24.4 +20.1 77 +30 +30 очень
душно
1014.1 1010.1 +33.2 0.0
00 25.06 СВ 1 15 км 4/0
[Ac trans Ci fib]
+23.1 +17.8 72 +29 +29 очень
душно
1015.6 1011.6
06 25.06 СВ 2 20 км 4/0
[Ac trans Ci fib]
+28.3 +16.8 50 +32 +40 душно 1016.6 1012.7 +23.0
12 25.06 Ю 2 20 км 8/6 600 м
[Cb cap Ac trans Cc]
+26.9 +16.6 53 +30 +35 душно 1018.7 1014.7

 

Местоположение метеостанции Мелитополь (Запорожская область, Украина): широта 46.83 долгота 35.37 высота над уровнем моря 34 м.

В архиве по умолчанию представлена погода в Мелитополе за последнюю неделю. Архивные данные за месяц целиком и за предыдущие месяцы, начиная с января 2011 года, Вы можете получить, выбрав интересующий диапазон дат из раскрывающегося списка и нажав кнопку "Ввод!".


*Определитесь, кто Вы:
робот инопланетянин человек

Внимание! Время в таблицах - всемирное. Для получения местного времени необходимо прибавить поправку, которая равна 2 ч.

Смотрите также архив погоды в соседних городах и на ближайших метеорологических станциях:

Погода в Ботиево (Запорожская область, Украина) (40 км)
Погода в Пришибе (Запорожская область, Украина) (49 км)
Погода в Нижних Серогозах (Херсонская область, Украина) (74 км)
Погода в Геническе (Херсонская область, Украина) (85 км)
Погода в Кирилловке (Запорожская область, Украина) (92 км)
Погода в Бердянске (Запорожская область, Украина) (108 км)
Погода в Никополе (Днепропетровская область, Украина) (109 км)
Погода в Запорожье (Запорожская область, Украина) (111 км)
Погода в Гуляйполе (Запорожская область, Украина) (115 км)
Погода в Аскании-Нове (Херсонская область, Украина) (121 км)

Пояснения к столбцам:

Ветер - указаны скорость ветра в м/с - средняя за 10 мин, порывы в срок и между сроками (в фигурных скобках) и направление, откуда дует ветер: С - северный, СВ - северо-восточный, В - восточный, ЮВ - юго-восточный, Ю - южный, ЮЗ - юго-западный, З - западный, СЗ - северо-западный.
Видимость - горизонтальная дальность видимости в метрах или километрах. При видимости от 1 до 10 км при отсутствии осадков обычно наблюдается дымка, при ухудшении видимости до 1 км и менее - туман. В сухую погоду видимость может ухудшаться дымом, пылью или мглою.
Явления - указаны атмосферные явления, наблюдавшиеся в срок или в последний час перед сроком; фигурными скобками обозначены явления, наблюдавшиеся между сроками (за 1-3 часа до срока); квадратными скобками обозначены град или гололедные отложения с указанием их диаметра в мм.
Облачность - указаны через наклонную черту общая и нижняя облачность в баллах и высота нижней границы облаков в метрах; квадратными скобками обозначены формы облаков: Ci - перистые, Cs - перисто-слоистые, Cc - перисто-кучевые, Ac - высококучевые, As - высокослоистые, Sc - слоисто-кучевые, Ns - слоисто-дождевые, Cu - кучевые, Cb - кучево-дождевые. Подробнее классификацию облаков см. в Атласе облаков (PDF).
T - Температура воздуха - температура, измеренная на высоте 2 м над землей.
Td - Температура точки росы - температура, при понижении до которой содержащийся в воздухе водяной пар достигнет насыщения.
f - Относительная влажность воздуха - влажноcть воздуха, измеренная на высоте 2 м над землей.
Te - Эффективная температура - температура, которую ощущает одетый по сезону человек в тени. Характеристика душности погоды. При расчете учитывается влияние влажности воздуха и скорости ветра на теплоощущения человека.
Tes - Эффективная температура на солнце - температура, которую ощущает человек, с поправкой на солнечный нагрев. Характеристика знойности погоды. Зависит от высоты солнца над горизонтом, облачности и скорости ветра. Ночью, в пасмурную погоду, а также при ветре 12 м/с и более поправка равна нулю.
P - Атмосферное давление - приведенное к уровню моря атмосферное давление.
Po - Атмосферное давление - измеренное на уровне метеостанции атмосферное давление.
Tmin - Минимальная температура - минимум температуры воздуха на высоте 2 м над землей.
Tmax - Максимальная температура - максимум температуры воздуха на высоте 2 м над землей.
R - Количество осадков - Количество выпавших осадков за период времени, мм. При наведении курсора мыши на число - период времени, за который выпало указанное количество осадков.
R24 - Количество осадков - Количество выпавших осадков за 24 часа, мм.
S - Снежный покров - Высота снежного покрова, см. При наведении курсора мыши на число - состояние снежного покрова и степень покрытия местности в баллах.